Location: Newark
(30.2500°N, 97.7500°W)
Time: 12:30:52
(UTC+00:00)

ISS - Visible Passes

Search period start: 16 December 2019 00:00
Search period end: 26 December 2019 00:00
Orbit: 411 x 421 km, 51.6° (Epoch: 16 December)

Date Brightness Start Highest point End Pass type
(mag) Time Alt. Az. Time Alt. Az. Time Alt. Az.
20 Dec -1.5 12:13:56 10° S 12:16:48 28° SE 12:19:41 10° ENE visible
21 Dec -0.6 11:26:35 10° SSE 11:28:25 14° SE 11:30:14 10° E visible
22 Dec -3.9 12:13:35 14° SW 12:16:17 70° NW 12:19:35 10° NE visible
23 Dec -2.3 11:28:48 35° ENE 11:28:48 35° ENE 11:31:00 10° NE visible
24 Dec -2.2 12:16:25 20° NNW 12:16:25 20° NNW 12:18:34 10° NNE visible
